Regional Weather Roundup
Issued by NWS

Home | Current Version | Previous Version | Text Only | Print | Product List | Glossary On
Versions: 1 2 3 4 5 6 7 8 9 10 11 12 13 14 15 16 17 18 19 20 21 22 23 24 25 26 27 28 29 30 31 32 33 34 35 36 37 38 39 40 41 42 43 44 45 46 47 48 49 50
000
ASUS44 KBMX 210510
RWRAL

ALABAMA REGIONAL WEATHER ROUNDUP
NATIONAL WEATHER SERVICE BIRMINGHAM AL
1200 AM CDT TUE APR 21 2015

NOTE: "FAIR" INDICATES FEW OR NO CLOUDS BELOW 12,000 FEET
WITH NO SIGNIFICANT WEATHER AND/OR OBSTRUCTIONS TO VISIBILITY.

THE REMARK "TC" DENOTES TEMPERATURE IN DEGREES CELSIUS.

ALZ001>011-014-016>018-020-210600-
NORTH ALABAMA

CITY           SKY/WX    TMP DP  RH WIND       PRES   REMARKS
MUSCLE SHOALS  CLEAR     48  43  82 S3        29.96R
HUNTSVILLE     CLEAR     53  46  77 CALM      29.94R
DECATUR        CLEAR     50  48  93 CALM      29.95R
HALEYVILLE       N/A     46  46 100 CALM      29.99R
GADSDEN        CLEAR     55  43  62 W8        29.94R
$$

ALZ012-013-022-023-030>036-040>044-210600-
WEST CENTRAL ALABAMA

CITY           SKY/WX    TMP DP  RH WIND       PRES   REMARKS
TUSCALOOSA     CLEAR     55  47  74 NW5       29.98R
$$

ALZ015-024>027-033>036-040>044-210600-
CENTRAL ALABAMA

CITY           SKY/WX    TMP DP  RH WIND       PRES   REMARKS
BIRMINGHAM     CLEAR     57  46  66 W9        29.98R
MONTGOMERY     PTCLDY    59  50  72 NW5       29.95R
SHELBY CO ARPT CLEAR     57  46  66 NW8       29.96R
MAXWELL AFB    PTCLDY    59  50  71 NW3       29.94R
GREENVILLE     FAIR      61  48  62 NW7       29.94R
$$

ALZ019-021-028-029-037-038-045>048-210600-
EAST CENTRAL ALABAMA

CITY           SKY/WX    TMP DP  RH WIND       PRES   REMARKS
ANNISTON       CLEAR     59  45  59 W8        29.94R
ALEXANDER CITY CLEAR     59  48  67 W3        29.94R
AUBURN         CLEAR     57  46  67 NW8       29.95S
$$

ALZ051>064-210600-
SOUTHWEST ALABAMA

CITY           SKY/WX    TMP DP  RH WIND       PRES   REMARKS
MOBILE         PTCLDY    60  51  72 NW3       29.97R
BROOKLEY FIELD CLEAR     60  52  74 N5        29.97S
EVERGREEN      CLEAR     60  50  69 NW3       29.95S
$$

ALZ049-050-065>069-210600-
SOUTHEAST ALABAMA

CITY           SKY/WX    TMP DP  RH WIND       PRES   REMARKS
DOTHAN         CLEAR     64  55  72 NW10      29.95R
OZARK          CLEAR     64  50  61 NW7       29.92R
TROY           CLEAR     61  50  67 NW8       29.94R
EUFAULA        FAIR      63  53  70 CALM      29.91R
$$



USA.gov is the U.S. government's official web portal to all federal, state and local government web resources and services.